Wakefield, VA

1:29 PM EDT on August 18, 2019 (GMT -0400)
Wakefield Municipal

Weather History for KAKQ - July, 2019

Change the Weather History Date:

Wednesday, July 17, 2019

  Actual Average (KJGG) Record (KJGG)
Temperature  
Mean Temperature 86 °F -  
Max Temperature 96 °F 88 °F 98 °F (1980)
Min Temperature 75 °F 67 °F 55 °F (1954)
Cooling Degree Days 20    
Growing Degree Days 36 (Base 50)    
Moisture  
Dew Point 73 °F    
Average Humidity 70    
Maximum Humidity 91    
Minimum Humidity 49    
Precipitation  
Precipitation 0.10 in - - ()
Sea Level Pressure  
Sea Level Pressure 29.98 in    
Wind  
Wind Speed 4 mph (SSW)    
Max Wind Speed 10 mph    
Max Gust Speed 22 mph    
Visibility 9 miles    
Events Rain , Thunderstorm    
Averages and records for this station are not official NWS values.
T = Trace of Precipitation, MM = Missing Value Source: NWS Daily Summary

Daily Weather History Graph

Daily Weather History Graph

Search for Another Location

Airport or City:

Astronomy

Jul. 17, 2019 Rise Set
Actual Time 6:01 AM EDT 8:26 PM EDT
Civil Twilight 5:31 AM EDT 8:56 PM EDT
Nautical Twilight 4:54 AM EDT 9:33 PM EDT
Astronomical Twilight 4:14 AM EDT 10:13 PM EDT
Moon 9:14 PM EDT (7/17) 6:32 AM EDT (7/17)
Length of Visible Light 15h 24m
Length of Day
14h 25m
Waxing Gibbous, 99% of the Moon is Illuminated
Jul 17
Waxing Gibbous
Jul 24
Last Quarter
Jul 31
New
Aug 7
First Quarter
Aug 15
Full

Hourly Weather History & Observations

Time (EDT) Temp. Heat Index Dew Point Humidity Pressure Visibility Wind Dir Wind Speed Gust Speed Precip Events Conditions
12:54 AM 77.0 °F - 72.0 °F 84% 30.06 in 10.0 mi Calm Calm - N/A   Clear
1:54 AM 77.0 °F - 72.0 °F 84% 30.06 in 10.0 mi South 3.5 mph - N/A   Clear
2:54 AM 77.0 °F - 72.0 °F 84% 30.04 in 10.0 mi Variable 4.6 mph - N/A   Clear
3:54 AM 77.0 °F - 72.0 °F 84% 30.03 in 10.0 mi South 4.6 mph - N/A   Clear
4:54 AM 75.9 °F - 72.0 °F 87% 30.03 in 9.0 mi SSW 4.6 mph - N/A   Clear
5:54 AM 75.9 °F - 73.0 °F 91% 30.04 in 7.0 mi Calm Calm - N/A   Clear
6:54 AM 75.9 °F - 73.0 °F 91% 30.04 in 6.0 mi South 4.6 mph - N/A   Clear
7:54 AM 80.1 °F 84.5 °F 73.9 °F 81% 30.04 in 8.0 mi SSW 8.1 mph - N/A   Clear
8:54 AM 82.9 °F 90.2 °F 75.0 °F 77% 30.04 in 10.0 mi SSW 6.9 mph - N/A   Clear
9:54 AM 86.0 °F 96.0 °F 75.9 °F 72% 30.04 in 10.0 mi SW 4.6 mph - N/A   Clear
10:54 AM 90.0 °F 102.5 °F 77.0 °F 65% 30.03 in 10.0 mi Variable 5.8 mph - N/A   Clear
11:54 AM 93.0 °F 104.6 °F 75.0 °F 56% 30.02 in 10.0 mi WSW 8.1 mph - N/A   Clear
12:54 PM 93.0 °F 104.6 °F 75.0 °F 56% 30.01 in 10.0 mi SSW 8.1 mph 16.1 mph N/A   Clear
1:54 PM 95.0 °F 106.7 °F 75.0 °F 52% 29.99 in 10.0 mi WSW 9.2 mph - N/A   Clear
2:54 PM 95.0 °F 105.2 °F 73.9 °F 50% 29.97 in 10.0 mi SSW 9.2 mph 17.3 mph N/A   Partly Cloudy
3:25 PM 93.9 °F 105.4 °F 75.0 °F 54% 29.96 in 10.0 mi SW 8.1 mph - N/A Thunderstorm Partly Cloudy
3:40 PM 96.1 °F 108.6 °F 75.0 °F 51% 29.95 in 10.0 mi SW 6.9 mph 17.3 mph N/A   Partly Cloudy
3:54 PM 96.1 °F 107.1 °F 73.9 °F 49% 29.95 in 10.0 mi SW 10.4 mph 17.3 mph N/A   Clear
4:54 PM 96.1 °F 107.1 °F 73.9 °F 49% 29.93 in 10.0 mi Variable 6.9 mph - N/A   Clear
5:54 PM 95.0 °F 105.2 °F 73.9 °F 50% 29.91 in 10.0 mi Variable 6.9 mph - N/A   Clear
6:05 PM 95.0 °F 104.5 °F 73.0 °F 49% 29.92 in 10.0 mi Variable 5.8 mph - N/A Thunderstorm Clear
6:50 PM 93.2 °F 102.4 °F 73.4 °F 52% 29.93 in 10.0 mi Variable 5.8 mph - N/A   Clear
6:54 PM 93.0 °F 103.2 °F 73.9 °F 54% 29.92 in 10.0 mi South 4.6 mph - N/A   Clear
7:54 PM 80.1 °F 83.6 °F 71.1 °F 74% 29.94 in 3.0 mi Variable 5.8 mph 21.9 mph 0.03 in Rain Light Rain
8:33 PM 79.0 °F - 71.1 °F 77% 29.93 in 1.8 mi South 8.1 mph 21.9 mph 0.04 in Rain Heavy Rain
8:40 PM 77.0 °F - 69.1 °F 76% 29.92 in 3.0 mi Calm Calm - 0.07 in Rain Light Rain
8:54 PM 75.9 °F - 72.0 °F 87% 29.91 in 10.0 mi Calm Calm - 0.07 in   Partly Cloudy
9:54 PM 75.9 °F - 73.0 °F 91% 29.93 in 10.0 mi Calm Calm - N/A   Partly Cloudy
10:54 PM 78.1 °F - 75.0 °F 90% 29.95 in 7.0 mi Calm Calm - N/A   Mostly Cloudy
11:54 PM 78.1 °F - 75.0 °F 90% 29.95 in 6.0 mi Calm Calm - 0.00 in Rain Light Rain